Погода в Боровикове

Россия / Костромская область     57°38′49″N   41°08′11″E
темп.,
°C
ветер,
м/с
пор.,
м/с
влажн.,
%
обл.,
%
осадки,
мм/ч
давл.,
гПа
погр.,
м
16 мая, вс
вс1600:00+14ю412950 0.6 1009320
03:00+12ю310970 0.6 1010224
06:00+13ю411940 0.0 1010410
09:00+17ююз510740 0.0 1011828
12:00+20юз6105849 0.0 10121648
15:00+20юз59690 0.9 10121474
18:00+19юз387417 1.0 1012742
21:00+14ююз310915 1.5 1013239
17 мая, пн
пн1700:00+12юз279621 0.0 1014141
03:00+12зюз24972 0.0 101581
06:00+14з139220 0.0 1016106
09:00+18юз1174100 0.0 1017450
12:00+22ююз225773 0.0 10171167
15:00+23ююв22549 0.0 10171228
18:00+22юв13685 0.0 1016116
21:00+16в38855 0.0 1016145
18 мая, вт
вт1800:00+15вюв41289100 0.6 1016244
03:00+14вюв3109570 0.7 1016172
06:00+16вюв310912 0.0 1015237
09:00+22юв596296 0.0 1015430
12:00+26юв594931 0.0 10151028
15:00+27юв59485 0.0 10142351
18:00+24юв4105817 0.0 1013624
21:00+18вюв414775 0.0 1014332
19 мая, ср
ср1900:00+17вюв4148098 0.0 1013306
03:00+15вюв412865 0.0 1013255
06:00+17вюв414735 0.0 1013330
09:00+22юв512555 0.0 1013487
12:00+27юв611445 0.0 10121149
15:00+27вюв612464 0.0 10112327
18:00+24вюв613515 0.0 1010820
21:00+21вюв616710 0.1 1009690
20 мая, чт
чт2000:00+18вюв3889100 0.2 1010295
03:00+15вюв4119459 0.2 1009303
06:00+16вюв412866 0.0 1008418
09:00+17юв5108553 0.1 1007809
12:00+19юв587793 1.7 10071244
15:00+19ююв6116860 3.2 10071557
18:00+16ююв610825 1.1 10061025
21:00+13ююв512905 1.5 1007732